When you browse on this site, cookies collect data to enhance your experience and personalize the content and advertising you see.
Visit our Privacy Policy to learn more. By continuing to use the site, you agree to this use of cookies and data.
  • Em Portugal
  • Lista de países
  • Para 7 dias
  • Temperatura da água
  • Mapas de satélite
  • Mapa do tempo
  • Widgets de tempo
  • user-avatar
    Iniciar Sessão

    Previsão horária em Zuwara

    Hoje, 24 Janeiro, Quinta-feira

    Tempo Temperatura Precipitação Vento Pressão Humidade
    00:00 +11°C° 0 mm 10 m/s 750 mmHg 47%
    01:00 +11°C° 0 mm 11 m/s 750 mmHg 47%
    02:00 +10°C° 0 mm 12 m/s 749 mmHg 49%
    03:00 +10°C° 0 mm 12 m/s 749 mmHg 50%
    04:00 +10°C° 0 mm 12 m/s 748 mmHg 51%
    05:00 +10°C° 0 mm 13 m/s 748 mmHg 52%
    06:00 +10°C° 0 mm 13 m/s 747 mmHg 53%
    07:00 +10°C° 0 mm 13 m/s 747 mmHg 54%
    08:00 +12°C° 0 mm 13 m/s 747 mmHg 52%
    09:00 +13°C° 0 mm 14 m/s 747 mmHg 50%
    10:00 +14°C° 0 mm 15 m/s 746 mmHg 48%
    11:00 +15°C° 0.1 mm 14 m/s 746 mmHg 46%
    12:00 +17°C° 0.1 mm 14 m/s 746 mmHg 43%
    13:00 +18°C° 0.1 mm 14 m/s 746 mmHg 40%
    14:00 +17°C° 0.1 mm 13 m/s 746 mmHg 41%
    15:00 +15°C° 0.1 mm 13 m/s 747 mmHg 42%
    16:00 +15°C° 0.1 mm 13 m/s 747 mmHg 43%
    17:00 +13°C° 0.1 mm 11 m/s 747 mmHg 48%
    18:00 +12°C° 0.1 mm 8 m/s 748 mmHg 53%
    19:00 +10°C° 0.1 mm 6 m/s 748 mmHg 59%
    20:00 +10°C° 0 mm 8 m/s 748 mmHg 52%
    21:00 +10°C° 0 mm 9 m/s 749 mmHg 46%
    22:00 +9°C° 0 mm 10 m/s 749 mmHg 39%
    23:00 +9°C° 0 mm 11 m/s 749 mmHg 38%

    Amanhã, 25 Janeiro, Sexta-feira

    Tempo Temperatura Precipitação Vento Pressão Humidade
    00:00 +9°C° 0 mm 12 m/s 749 mmHg 38%
    01:00 +8°C° 0 mm 13 m/s 749 mmHg 37%
    02:00 +8°C° 0 mm 13 m/s 749 mmHg 40%
    03:00 +8°C° 0 mm 14 m/s 750 mmHg 43%
    04:00 +8°C° 0 mm 14 m/s 750 mmHg 46%
    05:00 +8°C° 0 mm 14 m/s 750 mmHg 48%
    06:00 +8°C° 0 mm 13 m/s 751 mmHg 49%
    07:00 +8°C° 0 mm 13 m/s 751 mmHg 50%
    08:00 +8°C° 0 mm 13 m/s 752 mmHg 49%
    09:00 +9°C° 0 mm 14 m/s 753 mmHg 49%
    10:00 +10°C° 0 mm 14 m/s 754 mmHg 48%
    11:00 +10°C° 0 mm 14 m/s 754 mmHg 47%
    12:00 +12°C° 0 mm 13 m/s 754 mmHg 46%
    13:00 +12°C° 0 mm 13 m/s 754 mmHg 46%
    14:00 +12°C° 0 mm 12 m/s 754 mmHg 44%
    15:00 +12°C° 0 mm 12 m/s 754 mmHg 43%
    16:00 +13°C° 0 mm 11 m/s 755 mmHg 41%
    17:00 +12°C° 0 mm 10 m/s 755 mmHg 43%
    18:00 +12°C° 0 mm 9 m/s 755 mmHg 45%
    19:00 +11°C° 0 mm 8 m/s 756 mmHg 47%
    20:00 +11°C° 0.1 mm 8 m/s 756 mmHg 46%
    21:00 +11°C° 0.1 mm 9 m/s 757 mmHg 45%
    22:00 +11°C° 0.1 mm 9 m/s 757 mmHg 44%
    23:00 +9°C° 0.1 mm 10 m/s 757 mmHg 47%

    Depois de amanhã, 26 Janeiro, Sábado

    Tempo Temperatura Precipitação Vento Pressão Humidade
    00:00 +8°C° 0.1 mm 10 m/s 757 mmHg 50%
    01:00 +8°C° 0.1 mm 10 m/s 757 mmHg 53%
    02:00 +8°C° 0.1 mm 10 m/s 757 mmHg 54%
    03:00 +7°C° 0.1 mm 9 m/s 757 mmHg 56%
    04:00 +7°C° 0.1 mm 9 m/s 757 mmHg 57%
    05:00 +7°C° 0 mm 9 m/s 757 mmHg 58%
    06:00 +7°C° 0 mm 8 m/s 758 mmHg 59%
    07:00 +7°C° 0 mm 8 m/s 758 mmHg 61%
    08:00 +8°C° 0.3 mm 9 m/s 759 mmHg 59%
    09:00 +8°C° 0.3 mm 9 m/s 759 mmHg 58%
    10:00 +10°C° 0.3 mm 9 m/s 760 mmHg 57%
    11:00 +11°C° 0.2 mm 10 m/s 760 mmHg 54%
    12:00 +12°C° 0.2 mm 10 m/s 760 mmHg 51%
    13:00 +12°C° 0.2 mm 11 m/s 760 mmHg 49%
    14:00 +12°C° 0.1 mm 11 m/s 760 mmHg 49%
    15:00 +12°C° 0.1 mm 11 m/s 760 mmHg 49%
    16:00 +12°C° 0.1 mm 10 m/s 760 mmHg 49%
    17:00 +12°C° 0.2 mm 10 m/s 760 mmHg 51%
    18:00 +12°C° 0.2 mm 9 m/s 761 mmHg 53%
    19:00 +11°C° 0.2 mm 9 m/s 761 mmHg 55%
    20:00 +11°C° 0.1 mm 9 m/s 761 mmHg 55%
    21:00 +12°C° 0.1 mm 9 m/s 762 mmHg 55%
    22:00 +12°C° 0.1 mm 9 m/s 762 mmHg 55%
    23:00 +11°C° 0 mm 8 m/s 762 mmHg 57%

    27 Janeiro, Domingo

    Tempo Temperatura Precipitação Vento Pressão Humidade
    00:00 +11°C° 0 mm 8 m/s 762 mmHg 58%
    01:00 +10°C° 0 mm 7 m/s 763 mmHg 60%
    02:00 +10°C° 0 mm 7 m/s 763 mmHg 62%
    03:00 +10°C° 0 mm 7 m/s 763 mmHg 64%
    04:00 +10°C° 0 mm 7 m/s 763 mmHg 66%
    05:00 +10°C° 0.1 mm 7 m/s 763 mmHg 67%
    06:00 +10°C° 0.1 mm 7 m/s 763 mmHg 68%
    07:00 +9°C° 0.1 mm 7 m/s 763 mmHg 69%
    08:00 +10°C° 0 mm 7 m/s 764 mmHg 65%
    09:00 +10°C° 0 mm 7 m/s 764 mmHg 61%
    10:00 +11°C° 0 mm 7 m/s 764 mmHg 56%
    11:00 +13°C° 0 mm 6 m/s 764 mmHg 53%
    12:00 +13°C° 0 mm 6 m/s 764 mmHg 49%
    13:00 +14°C° 0 mm 6 m/s 763 mmHg 45%
    14:00 +14°C° 0 mm 5 m/s 763 mmHg 42%
    15:00 +15°C° 0 mm 5 m/s 763 mmHg 39%
    16:00 +15°C° 0 mm 4 m/s 762 mmHg 36%
    17:00 +15°C° 0 mm 4 m/s 762 mmHg 39%
    18:00 +14°C° 0 mm 4 m/s 762 mmHg 42%
    19:00 +13°C° 0 mm 3 m/s 762 mmHg 45%
    20:00 +13°C° 0 mm 4 m/s 762 mmHg 47%
    21:00 +13°C° 0 mm 5 m/s 762 mmHg 49%
    22:00 +11°C° 0 mm 7 m/s 762 mmHg 51%
    23:00 +11°C° 0 mm 7 m/s 762 mmHg 52%

    28 Janeiro, Segunda-feira

    Tempo Temperatura Precipitação Vento Pressão Humidade
    00:00 +10°C° 0 mm 7 m/s 761 mmHg 53%
    01:00 +10°C° 0 mm 8 m/s 761 mmHg 54%
    02:00 +10°C° 0 mm 8 m/s 760 mmHg 52%
    03:00 +10°C° 0 mm 8 m/s 760 mmHg 51%
    04:00 +10°C° 0 mm 8 m/s 759 mmHg 50%
    05:00 +9°C° 0 mm 8 m/s 759 mmHg 49%
    06:00 +9°C° 0 mm 8 m/s 759 mmHg 48%
    07:00 +9°C° 0 mm 8 m/s 759 mmHg 48%
    08:00 +11°C° 0 mm 9 m/s 759 mmHg 44%
    09:00 +12°C° 0 mm 10 m/s 759 mmHg 41%
    10:00 +13°C° 0 mm 10 m/s 759 mmHg 37%
    11:00 +16°C° 0 mm 10 m/s 758 mmHg 35%
    12:00 +17°C° 0 mm 10 m/s 758 mmHg 33%
    13:00 +19°C° 0 mm 9 m/s 757 mmHg 30%
    14:00 +19°C° 0 mm 9 m/s 756 mmHg 30%
    15:00 +20°C° 0 mm 8 m/s 756 mmHg 30%
    16:00 +20°C° 0 mm 8 m/s 755 mmHg 30%
    17:00 +18°C° 0 mm 7 m/s 756 mmHg 33%
    18:00 +17°C° 0 mm 6 m/s 756 mmHg 35%
    19:00 +16°C° 0 mm 5 m/s 756 mmHg 38%
    20:00 +15°C° 0 mm 5 m/s 756 mmHg 41%
    21:00 +15°C° 0 mm 5 m/s 756 mmHg 44%
    22:00 +15°C° 0 mm 5 m/s 756 mmHg 48%
    23:00 +14°C° 0.1 mm 6 m/s 756 mmHg 54%

    29 Janeiro, Terça-feira

    Tempo Temperatura Precipitação Vento Pressão Humidade
    00:00 +13°C° 0.1 mm 6 m/s 756 mmHg 60%
    01:00 +12°C° 0.1 mm 7 m/s 756 mmHg 66%
    02:00 +11°C° 0.2 mm 7 m/s 756 mmHg 69%
    03:00 +11°C° 0.2 mm 6 m/s 756 mmHg 71%
    04:00 +10°C° 0.2 mm 6 m/s 756 mmHg 73%
    05:00 +10°C° 0.1 mm 6 m/s 756 mmHg 72%
    06:00 +10°C° 0.1 mm 6 m/s 757 mmHg 72%
    07:00 +9°C° 0.1 mm 6 m/s 757 mmHg 71%
    08:00 +10°C° 0.5 mm 7 m/s 757 mmHg 68%
    09:00 +11°C° 0.5 mm 8 m/s 758 mmHg 65%
    10:00 +11°C° 0.5 mm 10 m/s 759 mmHg 63%
    11:00 +11°C° 0.3 mm 10 m/s 759 mmHg 59%
    12:00 +12°C° 0.3 mm 10 m/s 759 mmHg 55%
    13:00 +12°C° 0.3 mm 11 m/s 759 mmHg 51%
    14:00 +12°C° 0.1 mm 10 m/s 759 mmHg 50%
    15:00 +12°C° 0.1 mm 10 m/s 759 mmHg 50%
    16:00 +12°C° 0.1 mm 9 m/s 759 mmHg 49%
    17:00 +12°C° 0 mm 9 m/s 759 mmHg 47%
    18:00 +12°C° 0 mm 9 m/s 760 mmHg 46%
    19:00 +11°C° 0 mm 9 m/s 760 mmHg 45%
    20:00 +11°C° 0.1 mm 9 m/s 761 mmHg 46%
    21:00 +11°C° 0.1 mm 10 m/s 761 mmHg 48%
    22:00 +11°C° 0.1 mm 10 m/s 762 mmHg 49%
    23:00 +9°C° 0.1 mm 10 m/s 762 mmHg 51%
    Mostrar mais